Time,TemperatureF,DewpointF,PressureIn,WindDirection,WindDirectionDegrees,WindSpeedMPH,WindSpeedGustMPH,Humidity,HourlyPrecipIn,Conditions,Clouds,dailyrainin,SolarRadiationWatts/m^2,SoftwareType,DateUTC
2013-09-26 00:02:00,37.7,35.6,29.75,WNW,303,14.0,14.0,92,0.00,,,0.00,0,Wunderground v.1.15,2013-09-26 06:02:00,
2013-09-26 00:12:00,37.4,35.3,29.75,NW,306,14.0,14.0,92,0.00,,,0.00,0,Wunderground v.1.15,2013-09-26 06:12:00,
2013-09-26 00:18:00,37.3,35.2,29.75,WNW,300,12.0,15.0,92,0.00,,,0.00,0,Wunderground v.1.15,2013-09-26 06:18:00,
2013-09-26 00:24:00,37.1,35.0,29.75,NNW,328,11.0,11.0,92,0.00,,,0.00,0,Wunderground v.1.15,2013-09-26 06:24:00,
2013-09-26 00:30:00,37.0,35.2,29.75,NW,306,12.0,14.0,93,0.00,,,0.00,0,Wunderground v.1.15,2013-09-26 06:30:00,
2013-09-26 00:36:00,36.9,35.1,29.75,NW,304,13.0,16.0,93,0.00,,,0.00,0,Wunderground v.1.15,2013-09-26 06:36:00,
2013-09-26 00:42:00,36.7,34.9,29.76,WNW,299,14.0,14.0,93,0.00,,,0.00,0,Wunderground v.1.15,2013-09-26 06:42:00,
2013-09-26 00:48:00,36.5,34.7,29.75,NW,313,14.0,15.0,93,0.00,,,0.00,0,Wunderground v.1.15,2013-09-26 06:48:00,
2013-09-26 00:56:00,36.2,34.4,29.75,NW,322,14.0,20.0,93,0.00,,,0.00,0,Wunderground v.1.15,2013-09-26 06:56:00,
2013-09-26 01:02:00,36.0,34.2,29.75,WNW,286,14.0,19.0,93,0.00,,,0.00,0,Wunderground v.1.15,2013-09-26 07:02:00,
2013-09-26 01:08:00,35.9,34.1,29.75,WNW,283,14.0,19.0,93,0.00,,,0.00,0,Wunderground v.1.15,2013-09-26 07:08:00,
2013-09-26 01:14:00,35.9,34.1,29.75,WNW,302,13.0,16.0,93,0.00,,,0.00,0,Wunderground v.1.15,2013-09-26 07:14:00,
2013-09-26 01:20:00,35.9,34.1,29.75,NW,309,14.0,14.0,93,0.00,,,0.00,0,Wunderground v.1.15,2013-09-26 07:20:00,
2013-09-26 01:26:00,35.9,34.1,29.75,WNW,292,14.0,14.0,93,0.00,,,0.00,0,Wunderground v.1.15,2013-09-26 07:26:00,
2013-09-26 01:32:00,36.0,34.4,29.76,WNW,296,14.0,23.0,94,0.00,,,0.00,0,Wunderground v.1.15,2013-09-26 07:32:00,
2013-09-26 01:38:00,36.0,34.4,29.75,WNW,292,15.0,23.0,94,0.00,,,0.00,0,Wunderground v.1.15,2013-09-26 07:38:00,
2013-09-26 01:44:00,36.0,34.4,29.76,West,281,14.0,14.0,94,0.00,,,0.00,0,Wunderground v.1.15,2013-09-26 07:44:00,
2013-09-26 01:50:00,36.0,34.4,29.77,WNW,294,13.0,13.0,94,0.00,,,0.00,0,Wunderground v.1.15,2013-09-26 07:50:00,
2013-09-26 01:58:00,36.0,34.4,29.76,NW,317,13.0,15.0,94,0.00,,,0.00,0,Wunderground v.1.15,2013-09-26 07:58:00,
2013-09-26 02:06:00,36.0,34.4,29.77,West,265,13.0,16.0,94,0.00,,,0.00,0,Wunderground v.1.15,2013-09-26 08:06:00,
2013-09-26 02:14:00,35.9,34.3,29.77,WNW,301,12.0,12.0,94,0.00,,,0.00,0,Wunderground v.1.15,2013-09-26 08:14:00,
2013-09-26 02:22:00,36.0,34.4,29.78,WNW,294,10.0,13.0,94,0.00,,,0.00,0,Wunderground v.1.15,2013-09-26 08:22:00,
2013-09-26 02:28:00,36.0,34.4,29.78,WNW,303,11.0,13.0,94,0.00,,,0.00,0,Wunderground v.1.15,2013-09-26 08:28:00,
2013-09-26 02:34:00,36.0,34.4,29.78,WNW,296,12.0,16.0,94,0.00,,,0.00,0,Wunderground v.1.15,2013-09-26 08:34:00,
2013-09-26 02:42:00,36.0,34.4,29.78,NW,312,12.0,12.0,94,0.00,,,0.00,0,Wunderground v.1.15,2013-09-26 08:42:00,
2013-09-26 02:48:00,36.0,34.4,29.78,NW,309,11.0,16.0,94,0.00,,,0.00,0,Wunderground v.1.15,2013-09-26 08:48:00,
2013-09-26 02:54:00,36.0,34.4,29.78,NW,305,11.0,16.0,94,0.00,,,0.00,0,Wunderground v.1.15,2013-09-26 08:54:00,
2013-09-26 03:50:00,36.0,34.2,29.80,WNW,290,9.0,9.0,93,0.00,,,0.00,0,Wunderground v.1.15,2013-09-26 09:50:00,
2013-09-26 03:56:00,36.0,34.2,29.80,WNW,292,7.0,11.0,93,0.00,,,0.00,0,Wunderground v.1.15,2013-09-26 09:56:00,
2013-09-26 04:02:00,36.1,34.3,29.80,NW,309,8.0,11.0,93,0.00,,,0.00,0,Wunderground v.1.15,2013-09-26 10:02:00,
2013-09-26 04:08:00,36.1,34.3,29.80,NW,310,10.0,13.0,93,0.00,,,0.00,0,Wunderground v.1.15,2013-09-26 10:08:00,
2013-09-26 04:14:00,36.2,34.4,29.80,WNW,302,11.0,14.0,93,0.00,,,0.00,0,Wunderground v.1.15,2013-09-26 10:14:00,
2013-09-26 04:20:00,36.2,34.1,29.80,NW,313,10.0,10.0,92,0.00,,,0.00,0,Wunderground v.1.15,2013-09-26 10:20:00,
2013-09-26 04:26:00,36.3,34.2,29.81,NW,308,8.0,10.0,92,0.00,,,0.00,0,Wunderground v.1.15,2013-09-26 10:26:00,
2013-09-26 04:32:00,36.4,34.3,29.81,NNW,332,7.0,12.0,92,0.00,,,0.00,0,Wunderground v.1.15,2013-09-26 10:32:00,
2013-09-26 04:38:00,36.5,34.7,29.81,NW,304,6.0,12.0,93,0.00,,,0.00,0,Wunderground v.1.15,2013-09-26 10:38:00,
2013-09-26 04:44:00,36.6,34.5,29.81,NNW,336,6.0,12.0,92,0.00,,,0.00,0,Wunderground v.1.15,2013-09-26 10:44:00,
2013-09-26 04:52:00,36.7,34.6,29.82,NW,320,6.0,6.0,92,0.00,,,0.00,0,Wunderground v.1.15,2013-09-26 10:52:00,
2013-09-26 04:58:00,36.8,34.7,29.82,NW,313,4.0,11.0,92,0.00,,,0.00,0,Wunderground v.1.15,2013-09-26 10:58:00,
2013-09-26 05:04:00,36.9,34.8,29.82,NW,313,5.0,8.0,92,0.00,,,0.00,0,Wunderground v.1.15,2013-09-26 11:04:00,
2013-09-26 05:10:00,36.9,34.8,29.82,NW,324,7.0,7.0,92,0.00,,,0.00,0,Wunderground v.1.15,2013-09-26 11:10:00,
2013-09-26 05:16:00,36.9,34.8,29.82,NW,317,8.0,15.0,92,0.00,,,0.00,0,Wunderground v.1.15,2013-09-26 11:16:00,
2013-09-26 05:22:00,36.9,34.8,29.82,NW,325,9.0,9.0,92,0.00,,,0.00,0,Wunderground v.1.15,2013-09-26 11:22:00,
2013-09-26 05:30:00,37.0,34.6,29.83,WNW,294,8.0,9.0,91,0.00,,,0.00,0,Wunderground v.1.15,2013-09-26 11:30:00,
2013-09-26 05:38:00,37.0,34.6,29.83,NW,308,9.0,9.0,91,0.00,,,0.00,0,Wunderground v.1.15,2013-09-26 11:38:00,
2013-09-26 05:44:00,36.9,34.5,29.83,WNW,291,9.0,12.0,91,0.00,,,0.00,0,Wunderground v.1.15,2013-09-26 11:44:00,
2013-09-26 05:50:00,36.9,34.5,29.83,WNW,302,8.0,8.0,91,0.00,,,0.00,0,Wunderground v.1.15,2013-09-26 11:50:00,
2013-09-26 05:56:00,36.8,34.4,29.83,NW,308,9.0,10.0,91,0.00,,,0.00,0,Wunderground v.1.15,2013-09-26 11:56:00,
2013-09-26 06:02:00,36.7,34.3,29.84,NW,304,10.0,11.0,91,0.00,,,0.00,0,Wunderground v.1.15,2013-09-26 12:02:00,
2013-09-26 06:08:00,36.7,34.6,29.84,NNW,338,11.0,11.0,92,0.00,,,0.00,0,Wunderground v.1.15,2013-09-26 12:08:00,
2013-09-26 06:14:00,36.8,34.7,29.84,North,360,10.0,13.0,92,0.00,,,0.00,0,Wunderground v.1.15,2013-09-26 12:14:00,
2013-09-26 06:20:00,36.8,34.7,29.84,WNW,292,9.0,11.0,92,0.00,,,0.00,0,Wunderground v.1.15,2013-09-26 12:20:00,
2013-09-26 06:26:00,36.7,34.6,29.84,WNW,294,8.0,11.0,92,0.00,,,0.00,0,Wunderground v.1.15,2013-09-26 12:26:00,
2013-09-26 06:32:00,36.6,34.5,29.84,NW,311,7.0,9.0,92,0.00,,,0.00,0,Wunderground v.1.15,2013-09-26 12:32:00,
2013-09-26 06:38:00,36.4,34.3,29.85,NW,312,7.0,10.0,92,0.00,,,0.00,0,Wunderground v.1.15,2013-09-26 12:38:00,
2013-09-26 06:50:00,36.2,34.1,29.85,WNW,286,6.0,15.0,92,0.00,,,0.00,0,Wunderground v.1.15,2013-09-26 12:50:00,
2013-09-26 06:56:00,36.2,34.1,29.86,NW,308,7.0,15.0,92,0.00,,,0.01,0,Wunderground v.1.15,2013-09-26 12:56:00,
2013-09-26 07:02:00,36.2,34.1,29.86,NW,314,7.0,10.0,92,0.00,,,0.01,0,Wunderground v.1.15,2013-09-26 13:02:00,
2013-09-26 07:08:00,36.2,34.1,29.87,NW,313,8.0,10.0,92,0.00,,,0.01,0,Wunderground v.1.15,2013-09-26 13:08:00,
2013-09-26 07:14:00,36.2,34.1,29.87,NW,304,7.0,9.0,92,0.00,,,0.01,0,Wunderground v.1.15,2013-09-26 13:14:00,
2013-09-26 07:24:00,36.1,34.0,29.87,WNW,300,8.0,12.0,92,0.00,,,0.01,0,Wunderground v.1.15,2013-09-26 13:24:00,
2013-09-26 07:30:00,36.1,34.0,29.87,WNW,288,9.0,9.0,92,0.00,,,0.01,0,Wunderground v.1.15,2013-09-26 13:30:00,
2013-09-26 07:36:00,36.1,34.0,29.87,NW,309,8.0,9.0,92,0.00,,,0.01,0,Wunderground v.1.15,2013-09-26 13:36:00,
2013-09-26 07:42:00,36.1,33.7,29.87,NW,307,8.0,10.0,91,0.00,,,0.01,9,Wunderground v.1.15,2013-09-26 13:42:00,
2013-09-26 07:48:00,36.1,33.7,29.87,NW,311,8.0,11.0,91,0.00,,,0.01,14,Wunderground v.1.15,2013-09-26 13:48:00,
2013-09-26 07:54:00,36.1,34.0,29.88,WNW,303,7.0,7.0,92,0.00,,,0.01,11,Wunderground v.1.15,2013-09-26 13:54:00,
2013-09-26 08:00:00,36.1,33.7,29.88,WNW,298,8.0,8.0,91,0.00,,,0.01,11,Wunderground v.1.15,2013-09-26 14:00:00,
2013-09-26 08:06:00,36.1,33.7,29.88,WNW,294,7.0,10.0,91,0.00,,,0.01,14,Wunderground v.1.15,2013-09-26 14:06:00,
2013-09-26 08:12:00,36.1,33.7,29.88,NW,306,8.0,8.0,91,0.00,,,0.01,18,Wunderground v.1.15,2013-09-26 14:12:00,
2013-09-26 08:18:00,36.2,33.8,29.89,WNW,298,8.0,9.0,91,0.00,,,0.01,21,Wunderground v.1.15,2013-09-26 14:18:00,
2013-09-26 08:26:00,36.2,33.5,29.89,WNW,303,9.0,16.0,90,0.00,,,0.01,30,Wunderground v.1.15,2013-09-26 14:26:00,
2013-09-26 08:32:00,36.2,33.3,29.89,WNW,301,10.0,11.0,89,0.00,,,0.01,33,Wunderground v.1.15,2013-09-26 14:32:00,
2013-09-26 08:38:00,36.3,33.4,29.89,NW,317,11.0,13.0,89,0.00,,,0.01,28,Wunderground v.1.15,2013-09-26 14:38:00,
2013-09-26 08:44:00,36.3,33.1,29.89,WNW,302,12.0,13.0,88,0.00,,,0.01,25,Wunderground v.1.15,2013-09-26 14:44:00,
2013-09-26 08:52:00,36.3,33.1,29.90,WNW,290,11.0,11.0,88,0.00,,,0.01,23,Wunderground v.1.15,2013-09-26 14:52:00,
2013-09-26 08:58:00,36.3,32.8,29.90,WNW,292,10.0,11.0,87,0.00,,,0.01,26,Wunderground v.1.15,2013-09-26 14:58:00,
2013-09-26 09:04:00,36.3,32.8,29.90,WNW,288,9.0,13.0,87,0.00,,,0.01,35,Wunderground v.1.15,2013-09-26 15:04:00,
2013-09-26 09:10:00,36.4,32.9,29.90,NW,306,9.0,11.0,87,0.00,,,0.01,33,Wunderground v.1.15,2013-09-26 15:10:00,
2013-09-26 09:16:00,36.4,32.9,29.90,WNW,300,9.0,11.0,87,0.00,,,0.01,30,Wunderground v.1.15,2013-09-26 15:16:00,
2013-09-26 09:24:00,36.4,32.6,29.91,NW,312,10.0,12.0,86,0.00,,,0.01,49,Wunderground v.1.15,2013-09-26 15:24:00,
2013-09-26 09:30:00,36.6,33.1,29.91,WNW,298,9.0,9.0,87,0.00,,,0.01,81,Wunderground v.1.15,2013-09-26 15:30:00,
2013-09-26 09:36:00,36.8,33.3,29.91,WNW,298,8.0,10.0,87,0.00,,,0.01,118,Wunderground v.1.15,2013-09-26 15:36:00,
2013-09-26 09:42:00,37.1,33.6,29.91,WNW,298,8.0,13.0,87,0.00,,,0.01,113,Wunderground v.1.15,2013-09-26 15:42:00,
2013-09-26 09:50:00,37.5,33.7,29.92,WNW,296,9.0,12.0,86,0.00,,,0.01,128,Wunderground v.1.15,2013-09-26 15:50:00,
2013-09-26 09:56:00,37.8,33.7,29.92,WNW,303,10.0,15.0,85,0.00,,,0.01,148,Wunderground v.1.15,2013-09-26 15:56:00,
2013-09-26 10:02:00,38.0,33.9,29.92,West,281,11.0,14.0,85,0.00,,,0.01,179,Wunderground v.1.15,2013-09-26 16:02:00,
2013-09-26 10:08:00,38.3,34.5,29.92,West,269,11.0,15.0,86,0.00,,,0.01,171,Wunderground v.1.15,2013-09-26 16:08:00,
2013-09-26 10:14:00,38.3,34.5,29.93,West,281,11.0,14.0,86,0.00,,,0.01,178,Wunderground v.1.15,2013-09-26 16:14:00,
2013-09-26 10:20:00,38.2,34.4,29.93,WNW,292,10.0,13.0,86,0.00,,,0.01,156,Wunderground v.1.15,2013-09-26 16:20:00,
2013-09-26 10:26:00,38.1,34.3,29.93,West,272,9.0,13.0,86,0.00,,,0.01,141,Wunderground v.1.15,2013-09-26 16:26:00,
2013-09-26 10:32:00,38.0,34.5,29.94,WNW,289,9.0,9.0,87,0.00,,,0.01,125,Wunderground v.1.15,2013-09-26 16:32:00,
2013-09-26 10:40:00,37.8,34.3,29.94,WNW,295,10.0,12.0,87,0.00,,,0.01,139,Wunderground v.1.15,2013-09-26 16:40:00,
2013-09-26 10:46:00,37.7,34.5,29.94,WNW,290,10.0,12.0,88,0.00,,,0.01,163,Wunderground v.1.15,2013-09-26 16:46:00,
2013-09-26 10:52:00,37.8,34.8,29.94,NW,304,8.0,12.0,89,0.00,,,0.01,158,Wunderground v.1.15,2013-09-26 16:52:00,
2013-09-26 10:58:00,37.8,34.8,29.94,WNW,302,8.0,12.0,89,0.00,,,0.01,165,Wunderground v.1.15,2013-09-26 16:58:00,
2013-09-26 11:06:00,37.9,35.2,29.94,WNW,298,8.0,10.0,90,0.00,,,0.01,142,Wunderground v.1.15,2013-09-26 17:06:00,
2013-09-26 11:18:00,38.0,35.0,29.94,WNW,302,8.0,11.0,89,0.00,,,0.01,148,Wunderground v.1.15,2013-09-26 17:18:00,
2013-09-26 11:24:00,38.2,35.2,29.94,NW,311,7.0,9.0,89,0.00,,,0.01,132,Wunderground v.1.15,2013-09-26 17:24:00,
2013-09-26 11:30:00,38.2,35.2,29.94,WNW,288,7.0,10.0,89,0.00,,,0.01,148,Wunderground v.1.15,2013-09-26 17:30:00,
2013-09-26 11:36:00,38.3,35.3,29.94,NW,305,6.0,10.0,89,0.00,,,0.01,77,Wunderground v.1.15,2013-09-26 17:36:00,
2013-09-26 11:42:00,38.3,35.3,29.94,WNW,284,7.0,10.0,89,0.00,,,0.01,109,Wunderground v.1.15,2013-09-26 17:42:00,
2013-09-26 11:48:00,38.4,35.4,29.94,WNW,292,7.0,10.0,89,0.00,,,0.01,139,Wunderground v.1.15,2013-09-26 17:48:00,
2013-09-26 11:54:00,38.5,35.5,29.94,WNW,301,6.0,10.0,89,0.00,,,0.01,149,Wunderground v.1.15,2013-09-26 17:54:00,
2013-09-26 12:00:00,38.6,35.4,29.94,WNW,296,7.0,9.0,88,0.00,,,0.01,162,Wunderground v.1.15,2013-09-26 18:00:00,
2013-09-26 12:06:00,38.8,35.6,29.94,WNW,288,7.0,13.0,88,0.00,,,0.02,153,Wunderground v.1.15,2013-09-26 18:06:00,
2013-09-26 12:12:00,39.0,35.5,29.94,WNW,302,8.0,8.0,87,0.00,,,0.02,193,Wunderground v.1.15,2013-09-26 18:12:00,
2013-09-26 12:18:00,39.2,35.4,29.94,WNW,290,8.0,11.0,86,0.00,,,0.02,158,Wunderground v.1.15,2013-09-26 18:18:00,
2013-09-26 12:24:00,39.5,35.4,29.94,WNW,287,8.0,9.0,85,0.00,,,0.02,167,Wunderground v.1.15,2013-09-26 18:24:00,
2013-09-26 12:30:00,39.6,35.5,29.94,WNW,303,8.0,9.0,85,0.00,,,0.02,162,Wunderground v.1.15,2013-09-26 18:30:00,
2013-09-26 12:36:00,39.9,35.8,29.94,NW,310,8.0,9.0,85,0.00,,,0.02,174,Wunderground v.1.15,2013-09-26 18:36:00,
2013-09-26 12:44:00,40.1,35.7,29.94,WNW,301,7.0,8.0,84,0.00,,,0.02,214,Wunderground v.1.15,2013-09-26 18:44:00,
2013-09-26 12:50:00,40.3,35.5,29.94,West,268,8.0,12.0,83,0.00,,,0.02,237,Wunderground v.1.15,2013-09-26 18:50:00,
2013-09-26 12:56:00,40.6,35.5,29.94,NW,306,10.0,12.0,82,0.00,,,0.02,230,Wunderground v.1.15,2013-09-26 18:56:00,
2013-09-26 13:04:00,40.9,35.5,29.95,WNW,294,10.0,12.0,81,0.00,,,0.02,199,Wunderground v.1.15,2013-09-26 19:04:00,
2013-09-26 13:10:00,41.1,35.7,29.95,NW,304,10.0,11.0,81,0.00,,,0.02,229,Wunderground v.1.15,2013-09-26 19:10:00,
2013-09-26 13:16:00,41.2,35.8,29.95,NW,309,9.0,12.0,81,0.00,,,0.02,260,Wunderground v.1.15,2013-09-26 19:16:00,
2013-09-26 13:22:00,41.4,36.3,29.95,NW,314,9.0,10.0,82,0.00,,,0.02,269,Wunderground v.1.15,2013-09-26 19:22:00,
2013-09-26 13:28:00,41.6,35.6,29.95,WNW,294,9.0,15.0,79,0.00,,,0.02,267,Wunderground v.1.15,2013-09-26 19:28:00,
2013-09-26 13:34:00,41.8,35.4,29.96,WNW,300,9.0,11.0,78,0.00,,,0.02,255,Wunderground v.1.15,2013-09-26 19:34:00,
2013-09-26 13:40:00,41.9,34.9,29.95,NW,309,10.0,13.0,76,0.00,,,0.02,271,Wunderground v.1.15,2013-09-26 19:40:00,
2013-09-26 13:46:00,42.1,35.7,29.95,WNW,295,9.0,13.0,78,0.00,,,0.02,237,Wunderground v.1.15,2013-09-26 19:46:00,
2013-09-26 13:54:00,42.3,35.9,29.95,NW,315,7.0,10.0,78,0.00,,,0.02,241,Wunderground v.1.15,2013-09-26 19:54:00,
2013-09-26 14:02:00,42.5,34.8,29.95,WNW,298,7.0,7.0,74,0.00,,,0.02,260,Wunderground v.1.15,2013-09-26 20:02:00,
2013-09-26 14:10:00,42.6,33.9,29.95,WNW,302,8.0,9.0,71,0.00,,,0.02,213,Wunderground v.1.15,2013-09-26 20:10:00,
2013-09-26 14:16:00,42.7,33.6,29.96,North,351,6.0,7.0,70,0.00,,,0.02,144,Wunderground v.1.15,2013-09-26 20:16:00,
2013-09-26 14:22:00,42.7,34.3,29.95,NW,305,4.0,4.0,72,0.00,,,0.02,167,Wunderground v.1.15,2013-09-26 20:22:00,
2013-09-26 14:34:00,42.4,33.3,29.96,NE,36,3.0,4.0,70,0.00,,,0.02,128,Wunderground v.1.15,2013-09-26 20:34:00,
2013-09-26 14:40:00,42.0,32.9,29.96,NE,34,4.0,5.0,70,0.00,,,0.02,93,Wunderground v.1.15,2013-09-26 20:40:00,
2013-09-26 14:46:00,41.5,33.1,29.96,NE,42,4.0,5.0,72,0.00,,,0.02,148,Wunderground v.1.15,2013-09-26 20:46:00,
2013-09-26 14:52:00,41.1,33.8,29.96,NE,42,4.0,4.0,75,0.00,,,0.02,221,Wunderground v.1.15,2013-09-26 20:52:00,
2013-09-26 14:58:00,40.9,33.6,29.96,ENE,61,2.0,4.0,75,0.00,,,0.02,178,Wunderground v.1.15,2013-09-26 20:58:00,
2013-09-26 15:04:00,40.7,33.1,29.96,ENE,61,1.0,3.0,74,0.00,,,0.02,91,Wunderground v.1.15,2013-09-26 21:04:00,
2013-09-26 15:10:00,40.5,32.5,29.97,NE,40,2.0,5.0,73,0.00,,,0.02,69,Wunderground v.1.15,2013-09-26 21:10:00,
2013-09-26 15:18:00,40.4,34.1,29.97,NNE,19,2.0,5.0,78,0.00,,,0.02,172,Wunderground v.1.15,2013-09-26 21:18:00,
2013-09-26 15:24:00,40.5,35.1,29.97,WSW,253,1.0,5.0,81,0.00,,,0.02,209,Wunderground v.1.15,2013-09-26 21:24:00,
2013-09-26 15:30:00,40.8,35.1,29.97,WNW,284,4.0,4.0,80,0.00,,,0.02,156,Wunderground v.1.15,2013-09-26 21:30:00,
2013-09-26 15:38:00,41.0,35.0,29.97,WNW,299,4.0,6.0,79,0.00,,,0.02,185,Wunderground v.1.15,2013-09-26 21:38:00,
2013-09-26 15:44:00,41.3,34.3,29.97,WNW,286,6.0,9.0,76,0.00,,,0.02,172,Wunderground v.1.15,2013-09-26 21:44:00,
2013-09-26 15:56:00,41.6,34.3,29.97,NNW,339,1.0,5.0,75,0.00,,,0.02,167,Wunderground v.1.15,2013-09-26 21:56:00,
2013-09-26 16:04:00,41.7,34.0,29.97,NNW,329,1.0,3.0,74,0.00,,,0.02,118,Wunderground v.1.15,2013-09-26 22:04:00,
2013-09-26 16:10:00,41.6,33.9,29.97,NE,37,3.0,6.0,74,0.00,,,0.02,100,Wunderground v.1.15,2013-09-26 22:10:00,
2013-09-26 16:16:00,41.3,34.3,29.98,NW,315,2.0,6.0,76,0.00,,,0.02,118,Wunderground v.1.15,2013-09-26 22:16:00,
2013-09-26 16:24:00,41.0,34.3,29.98,NNW,341,2.0,3.0,77,0.00,,,0.02,160,Wunderground v.1.15,2013-09-26 22:24:00,
2013-09-26 16:30:00,40.9,34.2,29.98,NNE,19,4.0,4.0,77,0.00,,,0.02,151,Wunderground v.1.15,2013-09-26 22:30:00,
2013-09-26 16:36:00,40.8,34.5,29.98,NNE,12,2.0,4.0,78,0.00,,,0.02,114,Wunderground v.1.15,2013-09-26 22:36:00,
2013-09-26 16:42:00,40.8,34.8,29.98,NNE,12,0.0,1.0,79,0.00,,,0.02,102,Wunderground v.1.15,2013-09-26 22:42:00,
2013-09-26 16:48:00,40.9,34.2,29.98,NNE,12,0.0,1.0,77,0.00,,,0.02,90,Wunderground v.1.15,2013-09-26 22:48:00,
2013-09-26 16:54:00,40.9,34.2,29.98,NW,305,4.0,10.0,77,0.00,,,0.02,105,Wunderground v.1.15,2013-09-26 22:54:00,
2013-09-26 17:00:00,40.9,34.6,29.98,WNW,291,6.0,9.0,78,0.00,,,0.02,100,Wunderground v.1.15,2013-09-26 23:00:00,
2013-09-26 17:06:00,40.8,34.1,29.98,NW,304,6.0,9.0,77,0.00,,,0.02,95,Wunderground v.1.15,2013-09-26 23:06:00,
2013-09-26 17:14:00,40.7,35.0,29.99,WNW,286,8.0,11.0,80,0.00,,,0.02,190,Wunderground v.1.15,2013-09-26 23:14:00,
2013-09-26 17:20:00,40.6,35.2,29.99,NW,304,7.0,7.0,81,0.00,,,0.02,192,Wunderground v.1.15,2013-09-26 23:20:00,
2013-09-26 17:26:00,40.8,35.1,29.99,WNW,293,7.0,11.0,80,0.00,,,0.02,172,Wunderground v.1.15,2013-09-26 23:26:00,
2013-09-26 17:34:00,40.9,34.6,29.99,WNW,294,7.0,8.0,78,0.00,,,0.02,125,Wunderground v.1.15,2013-09-26 23:34:00,
2013-09-26 17:40:00,41.0,34.0,29.99,NW,305,7.0,7.0,76,0.00,,,0.02,105,Wunderground v.1.15,2013-09-26 23:40:00,
2013-09-26 17:46:00,41.1,33.4,29.99,WNW,299,8.0,14.0,74,0.00,,,0.02,83,Wunderground v.1.15,2013-09-26 23:46:00,
2013-09-26 17:54:00,41.0,34.0,29.99,NW,307,10.0,10.0,76,0.00,,,0.02,84,Wunderground v.1.15,2013-09-26 23:54:00,
2013-09-26 18:00:00,40.7,34.0,29.99,WNW,289,10.0,11.0,77,0.00,,,0.02,104,Wunderground v.1.15,2013-09-27 00:00:00,
2013-09-26 18:06:00,40.5,34.2,30.00,WNW,283,10.0,16.0,78,0.00,,,0.02,91,Wunderground v.1.15,2013-09-27 00:06:00,
2013-09-26 18:12:00,40.1,33.8,30.00,West,275,11.0,11.0,78,0.00,,,0.02,90,Wunderground v.1.15,2013-09-27 00:12:00,
2013-09-26 18:18:00,39.8,34.1,30.00,West,275,9.0,11.0,80,0.00,,,0.02,84,Wunderground v.1.15,2013-09-27 00:18:00,
2013-09-26 18:24:00,39.5,33.8,30.00,WNW,292,9.0,11.0,80,0.00,,,0.02,77,Wunderground v.1.15,2013-09-27 00:24:00,
2013-09-26 18:30:00,39.3,34.0,30.00,WNW,286,9.0,9.0,81,0.00,,,0.02,70,Wunderground v.1.15,2013-09-27 00:30:00,
2013-09-26 18:36:00,39.1,33.8,30.00,WNW,300,9.0,10.0,81,0.00,,,0.02,62,Wunderground v.1.15,2013-09-27 00:36:00,
2013-09-26 18:42:00,39.0,34.0,30.00,WNW,296,8.0,8.0,82,0.00,,,0.02,49,Wunderground v.1.15,2013-09-27 00:42:00,
2013-09-26 18:50:00,38.8,33.5,30.00,WNW,294,8.0,10.0,81,0.00,,,0.02,32,Wunderground v.1.15,2013-09-27 00:50:00,
2013-09-26 18:56:00,38.6,33.3,30.00,WNW,294,8.0,10.0,81,0.00,,,0.02,21,Wunderground v.1.15,2013-09-27 00:56:00,
2013-09-26 19:02:00,38.3,33.0,30.00,WNW,288,8.0,9.0,81,0.00,,,0.02,12,Wunderground v.1.15,2013-09-27 01:02:00,
2013-09-26 19:10:00,37.9,32.6,30.01,WNW,296,7.0,12.0,81,0.00,,,0.02,7,Wunderground v.1.15,2013-09-27 01:10:00,
2013-09-26 19:16:00,37.6,32.3,30.01,WNW,288,7.0,12.0,81,0.00,,,0.02,5,Wunderground v.1.15,2013-09-27 01:16:00,
2013-09-26 19:22:00,37.3,32.3,30.01,WNW,294,5.0,5.0,82,0.00,,,0.03,0,Wunderground v.1.15,2013-09-27 01:22:00,
2013-09-26 19:30:00,36.9,31.9,30.01,NW,306,4.0,4.0,82,0.00,,,0.03,0,Wunderground v.1.15,2013-09-27 01:30:00,
2013-09-26 19:36:00,36.5,31.8,30.02,WNW,303,3.0,5.0,83,0.00,,,0.03,0,Wunderground v.1.15,2013-09-27 01:36:00,
2013-09-26 19:42:00,36.2,31.5,30.02,NW,307,4.0,5.0,83,0.00,,,0.03,0,Wunderground v.1.15,2013-09-27 01:42:00,
2013-09-26 19:48:00,35.8,31.1,30.02,WNW,296,4.0,5.0,83,0.00,,,0.03,0,Wunderground v.1.15,2013-09-27 01:48:00,
2013-09-26 19:54:00,35.5,31.1,30.03,WNW,297,2.0,4.0,84,0.00,,,0.03,0,Wunderground v.1.15,2013-09-27 01:54:00,
2013-09-26 20:00:00,35.2,30.6,30.03,WNW,297,0.0,0.0,83,0.00,,,0.03,0,Wunderground v.1.15,2013-09-27 02:00:00,
2013-09-26 20:06:00,34.7,30.1,30.03,WNW,297,0.0,0.0,83,0.00,,,0.03,0,Wunderground v.1.15,2013-09-27 02:06:00,
2013-09-26 20:12:00,34.4,30.1,30.03,WNW,297,0.0,0.0,84,0.00,,,0.03,0,Wunderground v.1.15,2013-09-27 02:12:00,
2013-09-26 20:20:00,34.1,30.4,30.03,WNW,297,0.0,0.0,86,0.00,,,0.03,0,Wunderground v.1.15,2013-09-27 02:20:00,
2013-09-26 20:26:00,34.1,30.6,30.03,WNW,297,0.0,0.0,87,0.00,,,0.03,0,Wunderground v.1.15,2013-09-27 02:26:00,
2013-09-26 20:32:00,34.0,30.5,30.04,WNW,297,0.0,0.0,87,0.00,,,0.03,0,Wunderground v.1.15,2013-09-27 02:32:00,
2013-09-26 20:38:00,33.9,30.4,30.04,WNW,297,0.0,0.0,87,0.00,,,0.03,0,Wunderground v.1.15,2013-09-27 02:38:00,
2013-09-26 20:44:00,33.8,30.3,30.04,WNW,297,0.0,0.0,87,0.00,,,0.03,0,Wunderground v.1.15,2013-09-27 02:44:00,
2013-09-26 20:52:00,33.7,30.2,30.04,WNW,297,0.0,0.0,87,0.00,,,0.03,0,Wunderground v.1.15,2013-09-27 02:52:00,
2013-09-26 20:58:00,33.5,30.0,30.03,WNW,297,0.0,0.0,87,0.00,,,0.03,0,Wunderground v.1.15,2013-09-27 02:58:00,
2013-09-26 21:06:00,33.3,29.8,30.04,WNW,297,0.0,0.0,87,0.00,,,0.03,0,Wunderground v.1.15,2013-09-27 03:06:00,
2013-09-26 21:12:00,33.1,29.7,30.03,WNW,297,0.0,0.0,87,0.00,,,0.03,0,Wunderground v.1.15,2013-09-27 03:12:00,
2013-09-26 21:20:00,32.8,29.4,30.04,WNW,297,0.0,0.0,87,0.00,,,0.03,0,Wunderground v.1.15,2013-09-27 03:20:00,
2013-09-26 21:26:00,32.6,29.2,30.03,WNW,297,0.0,0.0,87,0.00,,,0.03,0,Wunderground v.1.15,2013-09-27 03:26:00,
2013-09-26 21:34:00,32.1,28.4,30.03,WNW,297,0.0,0.0,86,0.00,,,0.03,0,Wunderground v.1.15,2013-09-27 03:34:00,
2013-09-26 21:42:00,31.7,28.3,30.03,WNW,297,0.0,0.0,87,0.00,,,0.03,0,Wunderground v.1.15,2013-09-27 03:42:00,
2013-09-26 21:48:00,31.6,28.5,30.03,WNW,297,0.0,0.0,88,0.00,,,0.03,0,Wunderground v.1.15,2013-09-27 03:48:00,
2013-09-26 21:54:00,31.5,28.4,30.03,WNW,297,0.0,0.0,88,0.00,,,0.03,0,Wunderground v.1.15,2013-09-27 03:54:00,
2013-09-26 22:00:00,31.4,28.3,30.04,WNW,297,0.0,0.0,88,0.00,,,0.03,0,Wunderground v.1.15,2013-09-27 04:00:00,
2013-09-26 22:02:00,31.3,28.2,30.04,WNW,297,0.0,0.0,88,0.00,,,0.03,0,Wunderground v.1.15,2013-09-27 04:02:00,
2013-09-26 22:08:00,31.1,28.0,30.04,WNW,297,0.0,0.0,88,0.00,,,0.03,0,Wunderground v.1.15,2013-09-27 04:08:00,
2013-09-26 22:10:00,31.1,28.0,30.04,WNW,297,0.0,0.0,88,0.00,,,0.03,0,Wunderground v.1.15,2013-09-27 04:10:00,
2013-09-26 22:16:00,30.9,27.8,30.04,WNW,297,0.0,0.0,88,0.00,,,0.03,0,Wunderground v.1.15,2013-09-27 04:16:00,
2013-09-26 22:22:00,30.7,27.6,30.05,WNW,297,0.0,0.0,88,0.00,,,0.03,0,Wunderground v.1.15,2013-09-27 04:22:00,
2013-09-26 22:28:00,30.5,27.4,30.04,WNW,297,0.0,0.0,88,0.00,,,0.03,0,Wunderground v.1.15,2013-09-27 04:28:00,
2013-09-26 22:32:00,30.4,27.3,30.05,WNW,297,0.0,0.0,88,0.00,,,0.03,0,Wunderground v.1.15,2013-09-27 04:32:00,
2013-09-26 22:38:00,30.2,27.1,30.04,WNW,297,0.0,0.0,88,0.00,,,0.03,0,Wunderground v.1.15,2013-09-27 04:38:00,
2013-09-26 22:44:00,29.9,26.8,30.04,WNW,297,0.0,0.0,88,0.00,,,0.03,0,Wunderground v.1.15,2013-09-27 04:44:00,
2013-09-26 22:50:00,29.8,26.7,30.05,WNW,297,0.0,0.0,88,0.00,,,0.03,0,Wunderground v.1.15,2013-09-27 04:50:00,
2013-09-26 22:56:00,29.6,26.8,30.04,WNW,297,0.0,0.0,89,0.00,,,0.03,0,Wunderground v.1.15,2013-09-27 04:56:00,
2013-09-26 23:02:00,29.6,26.8,30.05,WNW,297,0.0,0.0,89,0.00,,,0.03,0,Wunderground v.1.15,2013-09-27 05:02:00,
2013-09-26 23:08:00,29.5,26.7,30.05,WNW,297,0.0,0.0,89,0.00,,,0.03,0,Wunderground v.1.15,2013-09-27 05:08:00,
2013-09-26 23:14:00,29.3,26.5,30.05,WNW,297,0.0,0.0,89,0.00,,,0.03,0,Wunderground v.1.15,2013-09-27 05:14:00,
2013-09-26 23:20:00,29.2,26.4,30.04,WNW,297,0.0,0.0,89,0.00,,,0.03,0,Wunderground v.1.15,2013-09-27 05:20:00,
2013-09-26 23:26:00,29.1,26.5,30.04,WNW,297,0.0,0.0,90,0.00,,,0.03,0,Wunderground v.1.15,2013-09-27 05:26:00,
2013-09-26 23:32:00,29.0,26.4,30.04,WNW,297,0.0,0.0,90,0.00,,,0.03,0,Wunderground v.1.15,2013-09-27 05:32:00,
2013-09-26 23:38:00,28.9,26.3,30.04,WNW,297,0.0,0.0,90,0.00,,,0.03,0,Wunderground v.1.15,2013-09-27 05:38:00,
2013-09-26 23:44:00,28.8,26.2,30.05,WNW,297,0.0,0.0,90,0.00,,,0.03,0,Wunderground v.1.15,2013-09-27 05:44:00,
2013-09-26 23:50:00,28.7,26.1,30.05,WNW,297,0.0,0.0,90,0.00,,,0.03,0,Wunderground v.1.15,2013-09-27 05:50:00,
2013-09-26 23:56:00,28.6,26.0,30.05,WNW,297,0.0,0.0,90,0.00,,,0.03,0,Wunderground v.1.15,2013-09-27 05:56:00,